timestamp,wind_dir_avg,wind_spd_max_dir,wind_spd_avg,wind_spd_gust,battery_voltage,lat,long
2017-10-20 00:00:00+00:00,239.0,242.0,7.51,9.43,12.7,47.59359,-54.27349
2017-10-20 00:10:00+00:00,240.0,239.0,6.93,8.08,12.6,47.59359,-54.27349
2017-10-20 00:20:00+00:00,236.0,243.0,8.44,12.04,12.7,47.59359,-54.27349
2017-10-20 00:30:00+00:00,235.0,235.0,8.93,10.15,12.7,47.59359,-54.27349
2017-10-20 00:40:00+00:00,235.0,233.0,8.84,10.06,12.7,47.59359,-54.27349
2017-10-20 00:50:00+00:00,238.0,245.0,8.51,10.35,12.8,47.59359,-54.27349
2017-10-20 01:00:00+00:00,238.0,234.0,8.33,9.62,12.7,47.59359,-54.27349
2017-10-20 01:10:00+00:00,239.0,239.0,8.03,9.37,12.6,47.59359,-54.27349
2017-10-20 01:20:00+00:00,240.0,240.0,8.04,10.2,12.7,47.59359,-54.27349
2017-10-20 01:30:00+00:00,244.0,240.0,8.36,9.9,12.7,47.59359,-54.27349
2017-10-20 01:40:00+00:00,239.0,237.0,8.96,10.5,12.7,47.59359,-54.27349
2017-10-20 01:50:00+00:00,235.0,228.0,9.55,11.7,12.7,47.59359,-54.27349
2017-10-20 02:00:00+00:00,242.0,238.0,9.1,10.58,12.6,47.59359,-54.27349
2017-10-20 02:10:00+00:00,237.0,235.0,9.52,10.87,12.6,47.59359,-54.27349
2017-10-20 02:20:00+00:00,240.0,249.0,9.6,12.61,12.7,47.59359,-54.27349
2017-10-20 02:30:00+00:00,238.0,242.0,10.62,14.05,12.7,47.59359,-54.27349
2017-10-20 02:40:00+00:00,239.0,247.0,11.2,14.26,12.7,47.59359,-54.27349
2017-10-20 02:50:00+00:00,235.0,234.0,10.28,12.41,12.7,47.59359,-54.27349
2017-10-20 03:00:00+00:00,236.0,238.0,10.58,12.68,12.6,47.59359,-54.27349
2017-10-20 03:10:00+00:00,234.0,237.0,9.74,12.15,12.6,47.59359,-54.27349
2017-10-20 03:20:00+00:00,239.0,236.0,10.49,13.3,12.7,47.59359,-54.27349
2017-10-20 03:30:00+00:00,244.0,243.0,11.02,14.45,12.7,47.59359,-54.27349
2017-10-20 03:40:00+00:00,244.0,248.0,11.02,13.07,12.7,47.59359,-54.27349
2017-10-20 03:50:00+00:00,243.0,242.0,11.76,14.1,12.7,47.59359,-54.27349
2017-10-20 04:00:00+00:00,237.0,241.0,11.47,13.85,12.6,47.59359,-54.27349
2017-10-20 04:10:00+00:00,239.0,235.0,11.0,12.61,12.6,47.59359,-54.27349
2017-10-20 04:20:00+00:00,232.0,229.0,10.2,12.03,12.7,47.59359,-54.27349
2017-10-20 04:30:00+00:00,241.0,238.0,8.63,9.97,12.7,47.59359,-54.27349
2017-10-20 04:40:00+00:00,238.0,233.0,10.08,11.14,12.7,47.59359,-54.27349
2017-10-20 04:50:00+00:00,232.0,234.0,9.45,11.39,12.7,47.59359,-54.27349
2017-10-20 05:00:00+00:00,232.0,233.0,10.86,12.26,12.6,47.59359,-54.27349
2017-10-20 05:10:00+00:00,227.0,226.0,10.58,12.74,12.6,47.59359,-54.27349
2017-10-20 05:20:00+00:00,228.0,221.0,10.71,11.79,12.6,47.59359,-54.27349
2017-10-20 05:30:00+00:00,229.0,231.0,11.9,13.21,12.6,47.59359,-54.27349
2017-10-20 05:40:00+00:00,230.0,217.0,12.32,14.89,12.7,47.59359,-54.27349
2017-10-20 05:50:00+00:00,234.0,232.0,12.46,13.89,12.7,47.59359,-54.27349
2017-10-20 06:00:00+00:00,230.0,230.0,11.28,13.59,12.6,47.59359,-54.27349
2017-10-20 06:10:00+00:00,228.0,227.0,11.87,13.29,12.6,47.59359,-54.27349
2017-10-20 06:20:00+00:00,227.0,232.0,10.18,11.76,12.6,47.59359,-54.27349
2017-10-20 06:30:00+00:00,225.0,228.0,10.07,11.42,12.6,47.59359,-54.27349
2017-10-20 06:40:00+00:00,226.0,228.0,10.74,12.9,12.7,47.59359,-54.27349
2017-10-20 06:50:00+00:00,233.0,233.0,11.36,14.06,12.7,47.59359,-54.27349
2017-10-20 07:00:00+00:00,232.0,238.0,11.45,13.04,12.6,47.59359,-54.27349
2017-10-20 07:10:00+00:00,232.0,228.0,11.49,14.21,12.6,47.59359,-54.27349
2017-10-20 07:20:00+00:00,229.0,225.0,11.82,14.36,12.6,47.59359,-54.27349
2017-10-20 07:30:00+00:00,229.0,228.0,12.29,14.11,12.6,47.59359,-54.27349
2017-10-20 07:40:00+00:00,229.0,228.0,11.69,13.44,12.6,47.59359,-54.27349
2017-10-20 07:50:00+00:00,228.0,229.0,13.34,14.74,12.6,47.59359,-54.27349
2017-10-20 08:00:00+00:00,228.0,226.0,11.1,12.73,12.6,47.59359,-54.27349
2017-10-20 08:10:00+00:00,226.0,224.0,11.53,13.25,12.6,47.59359,-54.27349
2017-10-20 08:20:00+00:00,226.0,217.0,11.21,13.42,12.6,47.59359,-54.27349
2017-10-20 08:30:00+00:00,228.0,224.0,9.96,12.16,12.6,47.59359,-54.27349
2017-10-20 08:40:00+00:00,230.0,235.0,9.73,10.94,12.6,47.59359,-54.27349
2017-10-20 08:50:00+00:00,227.0,220.0,9.8,11.02,12.6,47.59359,-54.27349
2017-10-20 09:00:00+00:00,228.0,229.0,8.74,10.64,12.6,47.59359,-54.27349
2017-10-20 09:10:00+00:00,229.0,229.0,8.57,9.66,12.6,47.59359,-54.27349
2017-10-20 09:20:00+00:00,225.0,232.0,10.48,11.68,12.6,47.59359,-54.27349
2017-10-20 09:30:00+00:00,227.0,230.0,11.15,12.21,12.6,47.59359,-54.27349
2017-10-20 09:40:00+00:00,229.0,234.0,10.5,11.6,12.6,47.59359,-54.27349
2017-10-20 09:50:00+00:00,228.0,227.0,11.56,13.31,12.6,47.59359,-54.27349
2017-10-20 10:00:00+00:00,230.0,232.0,10.3,12.66,12.6,47.59359,-54.27349
2017-10-20 10:10:00+00:00,238.0,239.0,8.95,10.6,12.6,47.59359,-54.27349
2017-10-20 10:20:00+00:00,235.0,233.0,10.13,12.43,12.6,47.59359,-54.27349
2017-10-20 10:30:00+00:00,228.0,226.0,11.59,14.21,12.6,47.59359,-54.27349
2017-10-20 10:40:00+00:00,221.0,220.0,14.01,15.97,12.6,47.59359,-54.27349
2017-10-20 10:50:00+00:00,221.0,227.0,13.69,16.38,12.6,47.59359,-54.27349
2017-10-20 11:00:00+00:00,220.0,225.0,13.36,16.17,12.6,47.59359,-54.27349
2017-10-20 11:10:00+00:00,221.0,229.0,14.67,17.04,12.6,47.59359,-54.27349
2017-10-20 11:20:00+00:00,225.0,227.0,12.77,14.99,12.6,47.59359,-54.27349
2017-10-20 11:30:00+00:00,224.0,226.0,13.46,15.8,12.8,47.59359,-54.27349
2017-10-20 11:40:00+00:00,225.0,230.0,15.42,18.16,13.0,47.59359,-54.27349
2017-10-20 11:50:00+00:00,222.0,221.0,13.69,16.33,13.5,47.59359,-54.27349
2017-10-20 12:00:00+00:00,224.0,218.0,13.83,15.98,13.8,47.59359,-54.27349
2017-10-20 12:10:00+00:00,219.0,221.0,14.72,17.17,13.7,47.59359,-54.27349
2017-10-20 12:20:00+00:00,226.0,227.0,12.86,16.26,13.7,47.59359,-54.27349
2017-10-20 12:30:00+00:00,227.0,221.0,14.6,17.88,13.8,47.59359,-54.27349
2017-10-20 12:40:00+00:00,225.0,224.0,12.65,15.14,13.7,47.59359,-54.27349
2017-10-20 12:50:00+00:00,227.0,232.0,14.06,16.34,13.8,47.59359,-54.27349
2017-10-20 13:00:00+00:00,226.0,228.0,15.18,16.79,14.2,47.59359,-54.27349
2017-10-20 13:10:00+00:00,229.0,235.0,13.34,15.3,13.9,47.59359,-54.27349
2017-10-20 13:20:00+00:00,230.0,232.0,12.63,15.54,13.8,47.59359,-54.27349
2017-10-20 13:30:00+00:00,230.0,229.0,14.06,16.63,14.3,47.59359,-54.27349
2017-10-20 13:40:00+00:00,230.0,232.0,12.9,15.0,14.1,47.59359,-54.27349
2017-10-20 13:50:00+00:00,226.0,230.0,12.48,14.25,13.8,47.59359,-54.27349
2017-10-20 14:00:00+00:00,234.0,228.0,9.78,11.78,13.8,47.59359,-54.27349
2017-10-20 14:10:00+00:00,233.0,234.0,12.01,13.31,13.7,47.59359,-54.27349
2017-10-20 14:20:00+00:00,237.0,250.0,12.56,16.27,13.7,47.59359,-54.27349
2017-10-20 14:30:00+00:00,235.0,232.0,12.57,14.76,13.8,47.59359,-54.27349
2017-10-20 14:40:00+00:00,233.0,239.0,12.8,14.71,13.7,47.59359,-54.27349
2017-10-20 14:50:00+00:00,232.0,229.0,12.95,14.94,13.8,47.59359,-54.27349
2017-10-20 15:00:00+00:00,231.0,226.0,11.61,13.65,13.7,47.59359,-54.27349
2017-10-20 15:10:00+00:00,230.0,232.0,13.16,16.1,14.0,47.59359,-54.27349
2017-10-20 15:20:00+00:00,233.0,234.0,12.49,14.42,13.8,47.59359,-54.27349
2017-10-20 15:30:00+00:00,228.0,228.0,14.84,16.56,14.0,47.59359,-54.27349
2017-10-20 15:40:00+00:00,231.0,221.0,12.63,15.36,14.0,47.59359,-54.27349
2017-10-20 15:50:00+00:00,233.0,236.0,14.46,17.44,13.8,47.59359,-54.27349
2017-10-20 16:00:00+00:00,237.0,236.0,14.15,17.78,13.8,47.59359,-54.27349
2017-10-20 16:10:00+00:00,229.0,233.0,12.64,15.16,13.8,47.59359,-54.27349
2017-10-20 16:20:00+00:00,228.0,237.0,13.23,15.97,14.0,47.59359,-54.27349
2017-10-20 16:30:00+00:00,226.0,229.0,14.43,15.82,14.0,47.59359,-54.27349
2017-10-20 16:40:00+00:00,227.0,226.0,13.59,15.6,13.7,47.59359,-54.27349
2017-10-20 16:50:00+00:00,228.0,231.0,12.46,15.13,13.9,47.59359,-54.27349
2017-10-20 17:00:00+00:00,229.0,230.0,12.54,14.61,13.7,47.59359,-54.27349
2017-10-20 17:10:00+00:00,229.0,232.0,12.57,14.65,13.7,47.59359,-54.27349
2017-10-20 17:20:00+00:00,227.0,230.0,11.87,14.04,13.8,47.59359,-54.27349
2017-10-20 17:30:00+00:00,226.0,225.0,13.55,15.47,13.7,47.59359,-54.27349
2017-10-20 17:40:00+00:00,225.0,229.0,13.02,15.12,13.7,47.59359,-54.27349
2017-10-20 17:50:00+00:00,226.0,222.0,12.74,14.82,13.7,47.59359,-54.27349
2017-10-20 18:00:00+00:00,227.0,230.0,12.91,15.01,13.8,47.59359,-54.27349
2017-10-20 18:10:00+00:00,225.0,225.0,12.26,13.5,13.7,47.59359,-54.27349
2017-10-20 18:20:00+00:00,223.0,226.0,12.71,14.98,13.7,47.59359,-54.27349
2017-10-20 18:30:00+00:00,223.0,225.0,13.37,14.65,13.9,47.59359,-54.27349
2017-10-20 18:40:00+00:00,225.0,224.0,11.17,12.5,13.7,47.59359,-54.27349
2017-10-20 18:50:00+00:00,225.0,225.0,13.26,15.01,13.9,47.59359,-54.27349
2017-10-20 19:00:00+00:00,229.0,233.0,12.42,14.37,13.7,47.59359,-54.27349
2017-10-20 19:10:00+00:00,229.0,237.0,10.2,11.0,13.4,47.59359,-54.27349
2017-10-20 19:20:00+00:00,235.0,234.0,8.77,10.41,13.4,47.59359,-54.27349
2017-10-20 19:30:00+00:00,231.0,232.0,8.21,9.23,13.4,47.59359,-54.27349
2017-10-20 19:40:00+00:00,237.0,242.0,6.96,8.01,13.3,47.59359,-54.27349
2017-10-20 19:50:00+00:00,237.0,246.0,8.07,10.04,13.3,47.59359,-54.27349
2017-10-20 20:00:00+00:00,226.0,224.0,9.63,10.36,13.2,47.59359,-54.27349
2017-10-20 20:10:00+00:00,225.0,225.0,9.74,11.17,13.0,47.59359,-54.27349
2017-10-20 20:20:00+00:00,233.0,229.0,8.97,10.13,13.0,47.59359,-54.27349
2017-10-20 20:30:00+00:00,233.0,231.0,8.34,9.7,13.0,47.59359,-54.27349
2017-10-20 20:40:00+00:00,230.0,232.0,7.74,8.57,13.0,47.59359,-54.27349
2017-10-20 20:50:00+00:00,231.0,231.0,6.78,7.69,13.0,47.59359,-54.27349
2017-10-20 21:00:00+00:00,240.0,239.0,7.91,9.16,12.8,47.59359,-54.27349
2017-10-20 21:10:00+00:00,245.0,253.0,7.42,8.72,12.7,47.59359,-54.27349
2017-10-20 21:20:00+00:00,246.0,244.0,8.09,8.94,12.8,47.59359,-54.27349
2017-10-20 21:30:00+00:00,250.0,251.0,6.59,7.56,12.8,47.59359,-54.27349
2017-10-20 21:40:00+00:00,253.0,255.0,6.65,7.48,12.8,47.59359,-54.27349
2017-10-20 21:50:00+00:00,257.0,262.0,7.53,8.03,12.8,47.59359,-54.27349
2017-10-20 22:00:00+00:00,257.0,254.0,7.14,7.79,12.7,47.59359,-54.27349
2017-10-20 22:10:00+00:00,259.0,260.0,7.58,8.35,12.6,47.59359,-54.27349
2017-10-20 22:20:00+00:00,261.0,270.0,7.55,8.87,12.7,47.59359,-54.27349
2017-10-20 22:30:00+00:00,253.0,255.0,7.38,8.08,12.7,47.59359,-54.27349
2017-10-20 22:40:00+00:00,249.0,253.0,7.19,8.26,12.8,47.59359,-54.27349
2017-10-20 22:50:00+00:00,253.0,259.0,7.84,8.66,12.8,47.59359,-54.27349
2017-10-20 23:00:00+00:00,253.0,251.0,7.34,8.46,12.7,47.59359,-54.27349
2017-10-20 23:10:00+00:00,260.0,261.0,8.18,9.73,12.6,47.59359,-54.27349
2017-10-20 23:20:00+00:00,263.0,266.0,7.71,8.71,12.7,47.59359,-54.27349
2017-10-20 23:30:00+00:00,266.0,265.0,8.4,10.52,12.7,47.59359,-54.27349
2017-10-20 23:40:00+00:00,266.0,265.0,7.12,8.45,12.7,47.59359,-54.27349
2017-10-20 23:50:00+00:00,263.0,261.0,7.11,8.08,12.8,47.59359,-54.27349
